THOR ABLESTAR DEB

Satellite information

Favourite Embed

Satellite Type and Status

DEBRISIN ORBIT

Key statistics

Satellite THOR ABLESTAR DEB at a glance.

Uptime

23487

Days in orbit

Revolutions

≈ 14.3

Per day

Orbit

LEO

Low Earth Orbit

Inclination

66.9

Latest

Satellite identification and parameters

Extended collection of information and parameters for THOR ABLESTAR DEB.

Object identification

Identified? True

Debris? True

Object name: THOR ABLESTAR DEB

International designator: 1961-015HT

Object number (NORAD): 1943

Object ID (CCSDS): 1943

Country: UNITED STATES OF AMERICA (US)

Current information (Y/N): Y

RCS size: SMALL

Orbital parameters

Period: 100.905 minutes

Inclination: 66.8551 deg

SMA: 7179.652 km

Apoapsis: 836.058 km

Periapsis: 766.976 km

RAAN: 81.8869 deg

Eccentricy: 0.00481096

Argument of periapsis: 120.5493 deg

Mean anomaly: 240.0366 deg

Mean motion: 14.27077891 rev/day

Mean motion (dot): 0.00002528 rev/day2

B* drag term: 0.0010569304 1/REarth

Two-line elements (TLE)

Creation date: Oct. 18, 2025, 2:17 a.m.

Reference frame: TEME

Reference center: EARTH

Epoch: Oct. 17, 2025, 10:38 a.m. UTC

TLE line 0: 0 THOR ABLESTAR DEB

TLE line 1: 1 01943U 61015HT 25290.44349865 .00002528 00000-0 10569-2 0 9991

TLE line 2: 2 01943 66.8551 81.8869 0048110 120.5493 240.0366 14.27077891309513

Live tracking on map

Real-time ground track for satellite THOR ABLESTAR DEB.

In-orbit conjunctions

A list of the most updated potential collisions computed for object THOR ABLESTAR DEB.

Target Orbit TCA Probability of collision Miss distance Type
COSMOS 1818 COOLANT LEO 2025-09-21 22:52:17 0.0004300942 61.0 (m) DEBRIS
SL-12 DEB HEO 2024-11-09 17:03:15 0.0006694783 462.0 (m) DEBRIS
FENGYUN 1C DEB SSO 2024-07-11 07:18:02 0.0001003481 171.0 (m) DEBRIS

Associated space launch

THOR ABLESTAR DEB was lifted into orbit during the mission ‘Thor DM-21 Ablestar | Transit 4A & Injun-1 & Solrad 3’, on board a Thor DM-21 Ablestar space rocket.

The launch took place on June 29, 1961, 4:23 a.m. from Space Launch Complex 17B.

For more information about the launch, click the button.

Launch to space Thor DM-21 Ablestar | Transit 4A & Injun-1 & Solrad 3
Thor DM-21 Ablestar | Transit 4A & Injun-1 & Solrad 3

Agency: N/A

Status: Launch Successful

Launch date: June 29, 1961, 4:23 a.m. UTC

Rocket: Thor DM-21 Ablestar

Launch pad: Space Launch Complex 17B

Location: Cape Canaveral SFS, FL, USA

...

Latest news about this satellite

There are no fresh news available about this satellite. Check back as we update our databases every day.


Newsletter sign-up

Weekly statistics, charts and insights to help you stay on top of the space industry.